Location: Ostrava
(49.8330°N, 18.2830°E)
Time: 15:07:46
(UTC+01:00)

Lacrosse 5 - Visible Passes

Search period start: 12 February 2016 00:00
Search period end: 22 February 2016 00:00
Orbit: 715 x 722 km, 57.0° (Epoch: 11 February)

Date Brightness Start Highest point End Pass type
(mag) Time Alt. Az. Time Alt. Az. Time Alt. Az.
12 Feb 4.1 03:12:22 22° ENE 03:12:22 22° ENE 03:14:23 10° ENE visible
12 Feb 1.9 04:51:34 52° WNW 04:52:29 62° NNW 04:57:32 10° NE visible
13 Feb 2.4 04:00:10 54° NE 04:00:10 54° NE 04:04:07 10° ENE visible
13 Feb 2.6 05:39:22 20° WNW 05:42:26 40° NNW 05:47:14 10° ENE visible
14 Feb 4.0 03:08:45 23° ENE 03:08:45 23° ENE 03:10:40 10° ENE visible
14 Feb 2.2 04:47:56 44° NW 04:48:47 48° NNW 04:53:43 10° NE visible
15 Feb 2.6 03:56:28 47° NNE 03:56:28 47° NNE 04:00:16 10° NE visible
15 Feb 2.8 05:35:38 18° WNW 05:38:51 37° N 05:43:34 10° ENE visible
16 Feb 4.0 03:04:58 23° NE 03:04:58 23° NE 03:06:50 10° ENE visible
16 Feb 2.6 04:44:09 36° NW 04:45:09 40° NNW 04:49:57 10° ENE visible
17 Feb 2.8 03:52:38 41° NNE 03:52:38 41° NNE 03:56:25 10° NE visible
17 Feb 2.9 05:31:48 17° WNW 05:35:17 37° N 05:40:00 10° ENE visible
18 Feb 4.0 03:01:06 23° NE 03:01:06 23° NE 03:02:58 10° NE visible
18 Feb 2.8 04:40:16 32° NW 04:41:33 37° N 04:46:16 10° ENE visible
19 Feb 3.0 03:48:44 37° NNE 03:48:44 37° NNE 03:52:40 10° ENE visible
19 Feb 2.8 05:27:54 15° NW 05:31:42 40° N 05:36:29 10° E visible
20 Feb 4.0 02:57:11 22° NE 02:57:11 22° NE 02:59:09 10° NE visible
20 Feb 2.9 04:36:21 29° NW 04:37:59 37° N 04:42:42 10° ENE visible
20 Feb 2.3 06:16:37 10° NW 06:21:40 61° NNE 06:26:41 10° ESE visible
21 Feb 5.0 02:05:38 10° NE 02:05:38 10° NE 02:05:42 10° NE visible
21 Feb 3.0 03:44:49 36° N 03:44:49 36° N 03:48:59 10° ENE visible
21 Feb 2.6 05:23:59 15° NW 05:28:04 47° NNE 05:32:58 10° E visible
